Location: Franzen
(48.6167°N, 15.3833°E)
Time: 06:58:03
(UTC+00:00)

FALCON 9 DEB - Visible Passes

Search period start: 29 July 2021 00:00
Search period end: 08 August 2021 00:00
Orbit: 422 x 432 km, 53.0° (Epoch: 28 July)

Date Brightness Start Highest point End Pass type
(mag) Time Alt. Az. Time Alt. Az. Time Alt. Az.
31 Jul 5.7 02:19:20 10° SSE 02:20:36 12° SE 02:21:54 10° ESE visible
02 Aug 4.5 02:24:29 12° SSW 02:27:06 29° SE 02:30:08 10° E visible
03 Aug 4.9 01:41:14 18° SSE 01:42:16 20° SE 01:44:52 10° E visible
04 Aug 5.5 00:57:55 13° SE 00:57:55 13° SE 00:59:14 10° ESE visible
04 Aug 3.2 02:31:02 15° SW 02:33:48 71° SSE 02:37:14 10° ENE visible
05 Aug 3.5 01:47:40 32° SSW 01:48:51 49° SSE 01:52:11 10° ENE visible
06 Aug 4.2 01:04:16 32° SE 01:04:16 32° SE 01:07:04 10° ENE visible
06 Aug 3.5 02:37:23 11° W 02:40:40 59° NNW 02:44:05 10° ENE visible
07 Aug 5.5 00:20:50 15° E 00:20:50 15° E 00:21:48 10° E visible
07 Aug 3.1 01:53:56 28° WSW 01:55:37 76° NNW 01:59:03 10° ENE visible
